Waarnemingen

Advertentie
Mijn weer
Vinga, Zweden (2516): temperatuur & dauwpunt: 09.08.2018 04:00:00 - 15.08.2018 04:00:00 (CEST)Vinga, Zweden (2516): windsnelheid & windstoten: 09.08.2018 04:00:00 - 15.08.2018 04:00:00 (CEST)Vinga, Zweden (2516): windrichting: 09.08.2018 04:00:00 - 15.08.2018 04:00:00 (CEST)Vinga, Zweden (2516): luchtdruk: 09.08.2018 04:00:00 - 15.08.2018 04:00:00 (CEST)Vinga, Zweden (2516): zicht: 09.08.2018 04:00:00 - 15.08.2018 04:00:00 (CEST)Vinga, Zweden (2516): neerslag: 09.08.2018 04:00:00 - 15.08.2018 04:00:00 (CEST)
Datum & Tijd tt [°C] td [°C] ff [km/u] ff [kn] fx [km/u] fx [kn] dd ppp [hPa] vv [km] rr [mm]
15.08.2018 04:00:00 16,5 14,5 24 13 37 20 NW 1010,2 50 0,0
15.08.2018 03:00:00 16,5 14,5 31 17 40 22 NW 1009,7 50 0,0
15.08.2018 02:00:00 16,7 14,7 31 17 39 21 NW 1009,4 50 0,0
15.08.2018 01:00:00 17,1 15,4 26 14 34 19 NW 1009,3 14 0,0
15.08.2018 00:00:00 17,5 15,8 16 8 19 11 NW 1009,0 50 0,0
14.08.2018 23:00:00 17,6 15,8 10 5 14 8 WNW 1008,8 50 0,0
14.08.2018 22:00:00 17,5 14,8 0 0 13 7 N 1008,7 50 0,0
14.08.2018 21:00:00 17,6 15,0 2 1 15 8 NNO 1008,6 50 0,0
14.08.2018 20:00:00 18,1 15,4 7 4 15 8 NNO 1007,8 50 0,0
14.08.2018 19:00:00 18,1 15,4 13 7 18 10 NNO 1007,5 50 0,0
14.08.2018 18:00:00 18,4 15,8 12 7 26 14 NO 1007,2 48 0,0
14.08.2018 17:00:00 18,3 15,7 12 7 26 14 NO 1007,0 48 0,0
14.08.2018 16:00:00 18,2 15,8 20 11 27 14 N 1006,9 46 0,0
14.08.2018 15:00:00 17,9 15,7 18 10 26 14 N 1006,8 38 0,0
14.08.2018 14:00:00 17,9 15,9 21 11 26 14 NNO 1006,5 50 0,0
14.08.2018 13:00:00 17,7 15,9 19 10 27 15 NNO 1006,4 48 0,0
14.08.2018 12:00:00 16,8 15,7 19 11 27 14 NO 1006,6 50 0,0
14.08.2018 11:00:00 16,3 15,3 18 10 23 13 NO 1006,6 29 0,0
14.08.2018 10:00:00 16,1 15,1 13 7 19 11 ONO 1006,7 13 0,0
14.08.2018 09:00:00 15,9 14,8 10 5 18 10 O 1006,8 50 0,3
14.08.2018 08:00:00 15,9 14,9 15 8 23 13 OZO 1006,7 28 0,8
14.08.2018 07:00:00 16,2 15,6 12 7 17 9 NO 1006,8 6 2,0
14.08.2018 06:00:00 16,2 15,4 4 2 9 5 NW 1006,8 6 1,3
14.08.2018 05:00:00 16,0 15,2 7 4 13 7 W 1007,0 10 1,7
14.08.2018 04:00:00 16,1 15,5 8 5 26 14 WZW 1007,3 6 3,8
14.08.2018 03:00:00 16,5 15,9 21 11 26 14 ZO 1007,1 7 2,1
14.08.2018 02:00:00 16,2 15,6 19 10 23 13 OZO 1007,4 7 1,8
14.08.2018 01:00:00 16,2 15,4 17 9 25 14 OZO 1007,6 13 1,0
14.08.2018 00:00:00 16,2 15,2 21 11 26 14 OZO 1007,8 3,8 1,4
13.08.2018 23:00:00 17,4 15,2 14 8 24 13 ONO 1007,7 30 0,0
13.08.2018 22:00:00 17,7 15,1 18 10 23 12 ZZO 1007,9 47 0,0
13.08.2018 21:00:00 17,4 15,0 6 4 12 7 Z 1008,1 47 0,1
13.08.2018 20:00:00 17,9 14,8 9 5 13 7 Z 1008,0 39 0,0
13.08.2018 19:00:00 17,9 12,4 8 4 13 7 ZZW 1008,1 50 0,0
13.08.2018 18:00:00 18,2 10,1 9 5 14 7 ZW 1008,5 50 0,0
13.08.2018 17:00:00 19,0 8,9 8 5 14 8 W 1008,7 44 0,0
13.08.2018 16:00:00 18,7 8,7 9 5 15 8 W 1008,9 50 0,0
13.08.2018 15:00:00 19,7 8,4 10 5 14 8 WNW 1009,2 46 0,0
13.08.2018 14:00:00 19,1 7,2 8 4 10 6 ZZW 1009,6 45 0,0
13.08.2018 13:00:00 18,5 7,3 7 4 16 8 Z 1009,8 46 0,0
13.08.2018 12:00:00 18,4 7,2 11 6 27 15 O 1010,1 48 0,0
13.08.2018 11:00:00 17,8 8,1 20 11 32 18 ONO 1010,3 48 0,0
13.08.2018 10:00:00 16,8 8,5 14 8 27 14 ONO 1010,3 49 0,0
13.08.2018 09:00:00 15,5 8,0 15 8 24 13 O 1010,6 47 0,0
13.08.2018 08:00:00 14,7 8,4 18 10 25 13 O 1010,5 46 0,0
13.08.2018 07:00:00 13,7 9,9 15 8 21 12 O 1010,3 50 0,0
13.08.2018 06:00:00 14,0 10,0 13 7 23 12 O 1010,4 50 0,0
13.08.2018 05:00:00 13,9 9,5 13 7 18 10 ONO 1010,3 50 0,0
13.08.2018 04:00:00 14,4 9,2 10 5 17 9 O 1010,5 50 0,0
13.08.2018 03:00:00 14,6 9,8 12 7 16 9 ONO 1010,6 50 0,0
13.08.2018 02:00:00 15,0 8,7 8 5 14 8 ONO 1010,7 50 0,0
13.08.2018 01:00:00 15,0 7,8 8 5 11 6 NNO 1010,9 50 0,0
13.08.2018 00:00:00 15,4 7,7 6 3 13 7 N 1010,9 50 0,0
12.08.2018 23:00:00 15,3 8,3 9 5 16 9 NW 1011,1 50 0,0
12.08.2018 22:00:00 15,6 8,8 13 7 23 12 NNW 1011,0 50 0,0
12.08.2018 21:00:00 15,8 8,3 16 9 27 14 NNW 1011,1 50 0,0
12.08.2018 20:00:00 16,1 8,8 17 9 29 16 NNW 1010,7 50 0,0
12.08.2018 19:00:00 17,2 8,9 19 10 32 18 NW 1011,2 50 0,0
12.08.2018 18:00:00 17,4 8,5 24 13 36 19 NW 1011,3 47 0,0
12.08.2018 17:00:00 17,3 8,4 28 15 38 20 NW 1011,3 44 0,0
12.08.2018 16:00:00 17,6 10,0 28 15 43 23 WNW 1011,5 30 0,0
12.08.2018 15:00:00 17,8 9,7 32 17 46 25 WNW 1011,6 38 0,0
12.08.2018 14:00:00 17,7 9,6 33 18 47 25 WNW 1011,5 40 0,0
12.08.2018 13:00:00 17,6 9,5 31 17 44 24 W 1011,3 30 0,0
12.08.2018 12:00:00 17,3 9,5 33 18 47 26 W 1010,9 33 0,0
12.08.2018 11:00:00 16,8 9,5 32 17 49 27 W 1010,6 30 0,0
12.08.2018 10:00:00 16,5 9,7 34 18 53 29 W 1010,3 28 0,0
12.08.2018 09:00:00 16,0 9,9 41 22 56 31 W 1010,1 25 0,0
12.08.2018 08:00:00 15,7 9,6 39 21 54 29 W 1009,8 33 0,0
12.08.2018 07:00:00 15,5 10,1 41 22 56 30 W 1009,7 30 0,0
12.08.2018 06:00:00 15,5 10,1 42 23 56 30 WNW 1009,4 26 0,0
12.08.2018 05:00:00 15,9 11,1 42 23 54 29 WNW 1009,2 27 0,0
12.08.2018 04:00:00 16,0 11,2 41 22 55 30 W 1009,3 34 0,0
12.08.2018 03:00:00 16,7 11,8 32 18 45 24 W 1009,3 46 0,0
12.08.2018 02:00:00 15,9 9,8 17 9 27 15 NW 1009,6 50 0,0
12.08.2018 01:00:00 16,0 9,0 21 12 37 20 NW 1009,6 50 0,0
12.08.2018 00:00:00 15,8 10,1 29 16 42 23 NW 1009,5 50 0,0
11.08.2018 23:00:00 15,6 11,0 32 17 47 26 NW 1009,8 50 0,0
11.08.2018 22:00:00 15,0 12,1 37 20 50 27 WNW 1009,6 49 1,0
11.08.2018 21:00:00 15,2 12,9 33 18 49 26 NW 1009,5 45 0,0
11.08.2018 20:00:00 15,4 13,2 39 21 48 26 NNW 1009,3 7 0,9
11.08.2018 19:00:00 17,1 12,8 22 12 29 16 ZW 1009,5 39 0,0
11.08.2018 18:00:00 17,2 11,5 16 9 26 14 W 1009,7 44 0,0
11.08.2018 17:00:00 18,7 12,0 21 11 26 14 ZZW 1010,0 33 0,0
11.08.2018 16:00:00 18,3 12,5 21 11 27 14 ZZW 1010,4 26 0,0
11.08.2018 15:00:00 18,4 11,9 18 10 25 14 Z 1011,0 29 0,0
11.08.2018 14:00:00 17,6 12,7 20 11 29 16 ZZO 1011,6 31 0,0
11.08.2018 13:00:00 16,0 13,1 21 11 26 14 O 1012,0 39 0,0
11.08.2018 12:00:00 14,3 12,3 23 12 32 17 ONO 1012,8 50 2,1
11.08.2018 11:00:00 13,9 12,6 17 9 31 17 NO 1013,9 3,3 5,8
11.08.2018 10:00:00 14,4 12,9 10 5 20 11 W 1014,6 3,8 3,8
11.08.2018 09:00:00 14,6 13,5 3 2 42 23 WNW 1014,2 3,4 15,6
11.08.2018 08:00:00 16,7 11,4 3 2 17 9 ZW 1014,5 42 0,0
11.08.2018 07:00:00 16,9 11,6 13 7 23 12 ZW 1015,0 37 0,0
11.08.2018 06:00:00 16,6 11,5 20 11 29 16 ZW 1015,1 37 0,0
11.08.2018 05:00:00 16,7 12,2 24 13 35 19 ZW 1015,3 28 0,0
11.08.2018 04:00:00 16,7 11,8 31 17 37 20 ZW 1015,7 29 0,0
11.08.2018 03:00:00 17,0 11,3 31 17 41 22 WZW 1015,6 32 0,0
11.08.2018 02:00:00 17,4 11,4 34 18 46 25 ZW 1015,8 22 0,0
11.08.2018 01:00:00 17,5 10,8 39 21 49 26 WZW 1015,8 23 0,0
11.08.2018 00:00:00 17,5 11,1 39 21 51 28 WZW 1015,7 22 0,0
10.08.2018 23:00:00 17,8 11,6 42 23 54 29 WZW 1015,5 23 0,0
10.08.2018 22:00:00 17,8 10,7 46 25 56 30 ZW 1015,2 22 0,0
10.08.2018 21:00:00 18,0 10,9 42 23 64 34 WZW 1014,9 26 0,0
10.08.2018 20:00:00 18,3 10,6 48 26 59 32 WZW 1014,6 25 0,0
10.08.2018 19:00:00 18,7 11,3 39 21 53 29 WZW 1014,3 21 0,0
10.08.2018 18:00:00 18,5 11,1 46 25 63 34 WZW 1014,1 16 0,0
10.08.2018 17:00:00 18,1 12,5 46 25 72 39 WZW 1013,4 13 0,0
10.08.2018 16:00:00 18,6 10,9 51 28 73 40 WZW 1012,5 12 0,0
10.08.2018 15:00:00 18,5 12,9 52 28 77 41 WZW 1011,2 11 0,0
10.08.2018 14:00:00 18,8 11,8 57 31 79 43 WZW 1009,6 9 0,0
10.08.2018 13:00:00 18,7 13,5 65 35 76 41 ZW 1008,0 7 0,0
10.08.2018 12:00:00 18,9 14,0 63 34 97 52 ZW 1006,4 5 0,0
10.08.2018 11:00:00 18,8 14,7 76 41 107 58 ZW 1004,0 3,9 0,0
10.08.2018 10:00:00 19,2 14,9 82 44 111 60 ZZW 1001,6 4,2 0,0
10.08.2018 09:00:00 20,4 17,4 71 38 89 48 Z 1000,3 8 0,0
10.08.2018 08:00:00 20,5 16,9 60 32 79 42 Z 1000,7 9 0,0
10.08.2018 07:00:00 20,9 19,2 44 24 57 31 ZZO 1001,4 10 0,0
10.08.2018 06:00:00 20,8 19,1 45 25 57 31 Z 1002,0 11 0,0
10.08.2018 05:00:00 19,8 18,1 37 20 45 24 ZZO 1002,6 17 0,0
10.08.2018 04:00:00 19,7 17,8 35 19 44 24 ZO 1003,5 21 0,0
10.08.2018 03:00:00 19,7 16,5 38 20 48 26 ZO 1004,9 33 0,0
10.08.2018 02:00:00 19,1 14,8 18 10 27 14 O 1006,9 22 1,3
10.08.2018 01:00:00 19,5 13,9 18 10 25 14 ONO 1008,0 36 0,0
10.08.2018 00:00:00 19,8 13,3 17 9 23 12 ONO 1008,8 50 0,0
09.08.2018 23:00:00 19,4 13,3 14 8 19 11 NO 1010,3 50 0,0
09.08.2018 22:00:00 19,2 13,1 9 5 16 9 NNO 1011,7 50 0,0
09.08.2018 21:00:00 19,2 12,9 8 4 16 9 N 1012,8 50 0,0
09.08.2018 20:00:00 19,1 12,8 9 5 15 8 N 1013,1 48 0,0
09.08.2018 19:00:00 19,7 11,7 9 5 13 7 NNW 1013,6 47 0,0
09.08.2018 18:00:00 20,4 11,1 4 2 11 6 W 1014,6 47 0,0
09.08.2018 17:00:00 20,3 11,0 6 3 11 6 ZZW 1015,3 49 0,0
09.08.2018 16:00:00 20,2 11,7 7 4 11 6 Z 1015,8 33 0,0
09.08.2018 15:00:00 20,2 11,7 6 3 13 7 ZZW 1016,3 41 0,0
09.08.2018 14:00:00 19,8 11,6 6 4 14 7 Z 1016,3 33 0,0
09.08.2018 13:00:00 20,8 11,7 8 5 18 10 W 1016,2 - 0,0
09.08.2018 12:00:00 20,2 12,4 9 5 19 11 WNW 1016,2 36 0,0
09.08.2018 11:00:00 19,8 12,6 14 8 21 11 WNW 1016,0 37 0,0
09.08.2018 10:00:00 19,7 13,4 16 8 26 14 W 1015,7 31 0,0
09.08.2018 09:00:00 18,9 13,3 16 9 27 15 W 1015,1 29 0,0
09.08.2018 08:00:00 18,5 12,7 19 10 31 17 W 1014,5 32 0,0
09.08.2018 07:00:00 18,0 13,9 20 11 31 17 W 1014,0 30 0,0
09.08.2018 06:00:00 18,0 14,5 22 12 34 18 W 1013,2 30 0,0
09.08.2018 05:00:00 18,4 15,5 24 13 36 19 W 1012,6 25 0,0
09.08.2018 04:00:00 19,4 17,2 21 11 33 18 W 1012,1 16 0,0

tt = temperatuur
td = dauwpunt
ff = windsnelheid
fx = windstoten
dd = windrichting
ppp = luchtdruk
vv = zicht
rr = neerslag

Weerstations in de omgeving